Miscellaneous Local Product
Issued by NWS Hastings, NE

Home | Current Version | Previous Version | Graphics & Text | Print | Product List | Glossary On
Versions: 1 2 3 4 5 6 7 8 9 10 11 12 13 14 15 16 17 18 19 20 21 22 23 24 25 26 27 28 29 30 31 32 33 34 35 36 37 38 39 40 41 42 43 44 45 46 47 48 49 50
000
AXUS43 KGID 230502
MISGRI

GID CWA HOURLY WEATHER ROUNDUP
NATIONAL WEATHER SERVICE HASTINGS NE
1200 AM CDT SAT MAY 23 2015

NOTE: "FAIR" INDICATES FEW OR NO CLOUDS BELOW 12,000 FEET WITH NO
SIGNIFICANT WEATHER AND/OR OBSTRUCTIONS TO VISIBILITY.

...SOUTH CENTRAL NEBRASKA...

CITY           SKY/WX    TMP DP  RH WIND       PRES   REMARKS
GRAND ISLAND   CLOUDY    54  50  86 S9        30.16F
HASTINGS       CLOUDY    54  51  90 SE10      30.14F
KEARNEY        CLOUDY    54  50  87 SE14      30.14S
ORD            CLOUDY    50  49  96 SE6       30.14F FOG
YORK           CLOUDY    55  46  71 SE9       30.17S
AURORA         CLOUDY    55  47  75 SE9       30.16S
LEXINGTON      CLOUDY    53  52  97 SE10      30.11F FOG
HOLDREGE       CLOUDY    53  51  95 SE20      30.11F FOG
HEBRON         CLOUDY    56  48  74 SE5       30.16F

...NEBRASKA PANHANDLE...

CITY           SKY/WX    TMP DP  RH WIND       PRES   REMARKS
CHADRON        CLOUDY    49  43  80 S9        30.09S
ALLIANCE       CLOUDY    45  43  93 SE10      30.08S
SCOTTSBLUFF    CLOUDY    46  45  96 SE12      30.07F
SIDNEY         CLOUDY    45  45 100 E8        30.08F FOG

...WESTERN AND NORTH CENTRAL NEBRASKA...

CITY           SKY/WX    TMP DP  RH WIND       PRES   REMARKS
VALENTINE      CLOUDY    48  44  86 E6        30.14F
AINSWORTH      CLOUDY    48  47  97 SE8       30.14F
ONEILL         DRIZZLE   51  50  97 SE6       30.17F
BROKEN BOW     CLOUDY    50  49  96 SE9       30.12F FOG
IMPERIAL       CLOUDY    50  49  96 SE13      30.06F FOG
NORTH PLATTE   CLOUDY    50  48  93 E13       30.09F FOG
MCCOOK         CLOUDY    52  52 100 SE10      30.08S FOG

...EASTERN NEBRASKA...

CITY           SKY/WX    TMP DP  RH WIND       PRES   REMARKS
NORFOLK        CLOUDY    54  51  90 E5        30.17S
SO SIOUX CITY  CLOUDY    57  49  74 E7        30.18F
TEKAMAH        CLOUDY    58  50  75 SE6       30.19S
COLUMBUS       CLOUDY    57  45  62 SE8       30.20F
ALBION         CLOUDY    54  46  75 E5        30.17S
OMAHA EPPLEY   CLOUDY    60  49  66 S8        30.20S
OFFUTT AFB     CLOUDY    58  50  75 E3        30.18F
MILLARD        CLOUDY    60  50  69 SE5       30.19F
LINCOLN        CLOUDY    60  44  55 SE13      30.18F
NEBRASKA CITY  CLOUDY    58  46  63 SE8       30.19F
BEATRICE       CLOUDY    58  46  64 SE9       30.17F
FALLS CITY     MOCLDY    58  50  75 SE3       30.19F

...NORTHERN KANSAS...

CITY           SKY/WX    TMP DP  RH WIND       PRES   REMARKS
GOODLAND       FOG       53  53 100 SE20G28   30.04R VSB 1/2
HILL CITY      CLOUDY    55  53  93 S13       30.11S
NORTON         CLOUDY    54  50  87 SE9       30.10S
PHILLIPSBURG   CLOUDY    57  57 100 SE12      30.12F
SMITH CENTER   CLOUDY    52  52 100 SE14      30.15S FOG
HAYS           CLOUDY    55  48  76 SE15      30.12S
RUSSELL        CLOUDY    55  54  96 SE13      30.12S
CONCORDIA      CLOUDY    57  49  74 SE12      30.16S
SALINA         CLOUDY    56  52  86 SE12      30.17S FOG
TOPEKA         CLOUDY    61  52  72 E7        30.19F



USA.gov is the U.S. government's official web portal to all federal, state and local government web resources and services.